owner,sensor,date,latitude,longitude,vertical_datum,sea_water_practical_salinity,qcFlag 
TABS,ioos:station:wmo:42048:1,2017-07-01T00:00:00Z,27.9396,-96.8429,2.0,27.1466,11111222 
TABS,ioos:station:wmo:42048:1,2017-07-01T00:30:00Z,27.9396,-96.8429,2.0,27.061,11111222 
TABS,ioos:station:wmo:42048:1,2017-07-01T01:00:00Z,27.9396,-96.8429,2.0,27.2638,11111222 
TABS,ioos:station:wmo:42048:1,2017-07-01T01:30:00Z,27.9396,-96.8429,2.0,27.2506,11111222 
TABS,ioos:station:wmo:42048:1,2017-07-01T02:00:00Z,27.9396,-96.8429,2.0,27.2555,11111222 
TABS,ioos:station:wmo:42048:1,2017-07-01T02:30:00Z,27.9396,-96.8429,2.0,27.3584,11111222 
TABS,ioos:station:wmo:42048:1,2017-07-01T03:00:00Z,27.9396,-96.8429,2.0,27.732,11111222 
TABS,ioos:station:wmo:42048:1,2017-07-01T03:30:00Z,27.9396,-96.8429,2.0,27.7957,11111222 
TABS,ioos:station:wmo:42048:1,2017-07-01T04:00:00Z,27.9396,-96.8429,2.0,27.9361,11111222 
TABS,ioos:station:wmo:42048:1,2017-07-01T04:30:00Z,27.9396,-96.8429,2.0,28.0402,11111222 
TABS,ioos:station:wmo:42048:1,2017-07-01T05:00:00Z,27.9396,-96.8429,2.0,27.9249,11111222 
TABS,ioos:station:wmo:42048:1,2017-07-01T05:30:00Z,27.9396,-96.8429,2.0,27.9546,11111222 
TABS,ioos:station:wmo:42048:1,2017-07-01T06:00:00Z,27.9396,-96.8429,2.0,27.9469,11111222 
TABS,ioos:station:wmo:42048:1,2017-07-01T06:30:00Z,27.9396,-96.8429,2.0,27.8236,11111222 
TABS,ioos:station:wmo:42048:1,2017-07-01T07:00:00Z,27.9396,-96.8429,2.0,27.8244,11111222 
TABS,ioos:station:wmo:42048:1,2017-07-01T07:30:00Z,27.9396,-96.8429,2.0,27.8003,11111222 
TABS,ioos:station:wmo:42048:1,2017-07-01T08:00:00Z,27.9396,-96.8429,2.0,27.8241,11111222 
TABS,ioos:station:wmo:42048:1,2017-07-01T08:30:00Z,27.9396,-96.8429,2.0,27.9109,11111222 
TABS,ioos:station:wmo:42048:1,2017-07-01T09:00:00Z,27.9396,-96.8429,2.0,27.9719,11111222 
TABS,ioos:station:wmo:42048:1,2017-07-01T09:30:00Z,27.9396,-96.8429,2.0,27.9981,11111222 
TABS,ioos:station:wmo:42048:1,2017-07-01T10:00:00Z,27.9396,-96.8429,2.0,28.0271,11111222 
TABS,ioos:station:wmo:42048:1,2017-07-01T10:30:00Z,27.9396,-96.8429,2.0,28.1107,11111222 
TABS,ioos:station:wmo:42048:1,2017-07-01T11:00:00Z,27.9396,-96.8429,2.0,28.2015,11111222 
TABS,ioos:station:wmo:42048:1,2017-07-01T11:30:00Z,27.9396,-96.8429,2.0,28.3255,11111222 
TABS,ioos:station:wmo:42048:1,2017-07-01T12:00:00Z,27.9396,-96.8429,2.0,28.4047,11111222 
TABS,ioos:station:wmo:42048:1,2017-07-01T12:30:00Z,27.9396,-96.8429,2.0,28.5524,11111222 
TABS,ioos:station:wmo:42048:1,2017-07-01T13:00:00Z,27.9396,-96.8429,2.0,28.7127,11111222 
TABS,ioos:station:wmo:42048:1,2017-07-01T13:30:00Z,27.9396,-96.8429,2.0,28.7606,11111222 
TABS,ioos:station:wmo:42048:1,2017-07-01T14:00:00Z,27.9396,-96.8429,2.0,28.7342,11111222 
TABS,ioos:station:wmo:42048:1,2017-07-01T14:30:00Z,27.9396,-96.8429,2.0,28.6263,11111222 
TABS,ioos:station:wmo:42048:1,2017-07-01T15:00:00Z,27.9396,-96.8429,2.0,28.5511,11111222 
TABS,ioos:station:wmo:42048:1,2017-07-01T15:30:00Z,27.9396,-96.8429,2.0,28.5367,11111222 
TABS,ioos:station:wmo:42048:1,2017-07-01T16:00:00Z,27.9396,-96.8429,2.0,28.543,11111222 
TABS,ioos:station:wmo:42048:1,2017-07-01T16:30:00Z,27.9396,-96.8429,2.0,28.5827,11111222 
TABS,ioos:station:wmo:42048:1,2017-07-01T17:00:00Z,27.9396,-96.8429,2.0,28.5973,11111222 
TABS,ioos:station:wmo:42048:1,2017-07-01T17:30:00Z,27.9396,-96.8429,2.0,28.5887,11111222 
TABS,ioos:station:wmo:42048:1,2017-07-01T18:00:00Z,27.9396,-96.8429,2.0,28.5639,11111222 
TABS,ioos:station:wmo:42048:1,2017-07-01T18:30:00Z,27.9396,-96.8429,2.0,28.6167,11111222 
TABS,ioos:station:wmo:42048:1,2017-07-01T19:00:00Z,27.9396,-96.8429,2.0,28.6293,11111222 
TABS,ioos:station:wmo:42048:1,2017-07-01T19:30:00Z,27.9396,-96.8429,2.0,28.6971,11111222 
TABS,ioos:station:wmo:42048:1,2017-07-01T20:00:00Z,27.9396,-96.8429,2.0,28.7588,11111222 
TABS,ioos:station:wmo:42048:1,2017-07-01T20:30:00Z,27.9396,-96.8429,2.0,28.8344,11111222 
TABS,ioos:station:wmo:42048:1,2017-07-01T21:00:00Z,27.9396,-96.8429,2.0,28.8586,11111222 
TABS,ioos:station:wmo:42048:1,2017-07-01T21:30:00Z,27.9396,-96.8429,2.0,28.8971,11111222 
TABS,ioos:station:wmo:42048:1,2017-07-01T22:00:00Z,27.9396,-96.8429,2.0,28.917,11111222 
TABS,ioos:station:wmo:42048:1,2017-07-01T22:30:00Z,27.9396,-96.8429,2.0,28.95,11111222 
TABS,ioos:station:wmo:42048:1,2017-07-01T23:00:00Z,27.9396,-96.8429,2.0,29.0005,11111222 
TABS,ioos:station:wmo:42048:1,2017-07-01T23:30:00Z,27.9396,-96.8429,2.0,29.0556,11111222 
TABS,ioos:station:wmo:42048:1,2017-07-02T00:00:00Z,27.9396,-96.8429,2.0,29.069,11111222 
TABS,ioos:station:wmo:42048:1,2017-07-02T00:30:00Z,27.9396,-96.8429,2.0,29.1281,11111222 
TABS,ioos:station:wmo:42048:1,2017-07-02T01:00:00Z,27.9396,-96.8429,2.0,29.1541,11111222 
TABS,ioos:station:wmo:42048:1,2017-07-02T01:30:00Z,27.9396,-96.8429,2.0,29.2806,11111222 
TABS,ioos:station:wmo:42048:1,2017-07-02T02:00:00Z,27.9396,-96.8429,2.0,29.2543,11111222 
TABS,ioos:station:wmo:42048:1,2017-07-02T02:30:00Z,27.9396,-96.8429,2.0,29.2669,11111222 
TABS,ioos:station:wmo:42048:1,2017-07-02T03:00:00Z,27.9396,-96.8429,2.0,29.3967,11111222 
TABS,ioos:station:wmo:42048:1,2017-07-02T03:30:00Z,27.9396,-96.8429,2.0,29.446,11111222 
TABS,ioos:station:wmo:42048:1,2017-07-02T04:00:00Z,27.9396,-96.8429,2.0,29.4715,11111222 
TABS,ioos:station:wmo:42048:1,2017-07-02T04:30:00Z,27.9396,-96.8429,2.0,29.4866,11111222 
TABS,ioos:station:wmo:42048:1,2017-07-02T05:00:00Z,27.9396,-96.8429,2.0,29.5371,11111222 
TABS,ioos:station:wmo:42048:1,2017-07-02T05:30:00Z,27.9396,-96.8429,2.0,29.5817,11111222 
TABS,ioos:station:wmo:42048:1,2017-07-02T06:00:00Z,27.9396,-96.8429,2.0,29.5811,11111222 
TABS,ioos:station:wmo:42048:1,2017-07-02T06:30:00Z,27.9396,-96.8429,2.0,29.558,11111222 
TABS,ioos:station:wmo:42048:1,2017-07-02T07:00:00Z,27.9396,-96.8429,2.0,29.558,11111222 
TABS,ioos:station:wmo:42048:1,2017-07-02T07:30:00Z,27.9396,-96.8429,2.0,29.6537,11111222 
TABS,ioos:station:wmo:42048:1,2017-07-02T08:00:00Z,27.9396,-96.8429,2.0,29.752,11111222 
TABS,ioos:station:wmo:42048:1,2017-07-02T08:30:00Z,27.9396,-96.8429,2.0,29.8698,11111222 
TABS,ioos:station:wmo:42048:1,2017-07-02T09:00:00Z,27.9396,-96.8429,2.0,29.8928,11111222 
TABS,ioos:station:wmo:42048:1,2017-07-02T09:30:00Z,27.9396,-96.8429,2.0,29.9079,11111222 
TABS,ioos:station:wmo:42048:1,2017-07-02T10:00:00Z,27.9396,-96.8429,2.0,29.9079,11111222 
TABS,ioos:station:wmo:42048:1,2017-07-02T10:30:00Z,27.9396,-96.8429,2.0,29.9045,11111222 
TABS,ioos:station:wmo:42048:1,2017-07-02T11:00:00Z,27.9396,-96.8429,2.0,29.8887,11111222 
TABS,ioos:station:wmo:42048:1,2017-07-02T11:30:00Z,27.9396,-96.8429,2.0,29.9294,11111222 
TABS,ioos:station:wmo:42048:1,2017-07-02T12:00:00Z,27.9396,-96.8429,2.0,29.9767,11111222 
TABS,ioos:station:wmo:42048:1,2017-07-02T12:30:00Z,27.9396,-96.8429,2.0,29.9936,11111222 
TABS,ioos:station:wmo:42048:1,2017-07-02T13:00:00Z,27.9396,-96.8429,2.0,30.0088,11111222 
TABS,ioos:station:wmo:42048:1,2017-07-02T13:30:00Z,27.9396,-96.8429,2.0,30.0397,11111222 
TABS,ioos:station:wmo:42048:1,2017-07-02T14:00:00Z,27.9396,-96.8429,2.0,29.9666,11111222 
TABS,ioos:station:wmo:42048:1,2017-07-02T14:30:00Z,27.9396,-96.8429,2.0,29.9152,11111222 
TABS,ioos:station:wmo:42048:1,2017-07-02T15:00:00Z,27.9396,-96.8429,2.0,29.8871,11111222 
TABS,ioos:station:wmo:42048:1,2017-07-02T15:30:00Z,27.9396,-96.8429,2.0,29.9206,11111222 
TABS,ioos:station:wmo:42048:1,2017-07-02T16:00:00Z,27.9396,-96.8429,2.0,29.9968,11111222 
TABS,ioos:station:wmo:42048:1,2017-07-02T16:30:00Z,27.9396,-96.8429,2.0,30.2822,11111222 
TABS,ioos:station:wmo:42048:1,2017-07-02T17:00:00Z,27.9396,-96.8429,2.0,30.2452,11111222 
TABS,ioos:station:wmo:42048:1,2017-07-02T17:30:00Z,27.9396,-96.8429,2.0,30.2388,11111222 
TABS,ioos:station:wmo:42048:1,2017-07-02T18:00:00Z,27.9396,-96.8429,2.0,30.2917,11111222 
TABS,ioos:station:wmo:42048:1,2017-07-02T18:30:00Z,27.9396,-96.8429,2.0,30.2496,11111222 
TABS,ioos:station:wmo:42048:1,2017-07-02T19:00:00Z,27.9396,-96.8429,2.0,30.314,11111222 
TABS,ioos:station:wmo:42048:1,2017-07-02T19:30:00Z,27.9396,-96.8429,2.0,30.3339,11111222 
TABS,ioos:station:wmo:42048:1,2017-07-02T20:00:00Z,27.9396,-96.8429,2.0,30.2408,11111222 
TABS,ioos:station:wmo:42048:1,2017-07-02T20:30:00Z,27.9396,-96.8429,2.0,30.1421,11111222 
TABS,ioos:station:wmo:42048:1,2017-07-02T21:00:00Z,27.9396,-96.8429,2.0,30.1203,11111222 
TABS,ioos:station:wmo:42048:1,2017-07-02T21:30:00Z,27.9396,-96.8429,2.0,30.0841,11111222 
TABS,ioos:station:wmo:42048:1,2017-07-02T22:00:00Z,27.9396,-96.8429,2.0,30.0733,11111222 
TABS,ioos:station:wmo:42048:1,2017-07-02T22:30:00Z,27.9396,-96.8429,2.0,30.022,11111222 
TABS,ioos:station:wmo:42048:1,2017-07-02T23:00:00Z,27.9396,-96.8429,2.0,29.9902,11111222 
TABS,ioos:station:wmo:42048:1,2017-07-02T23:30:00Z,27.9396,-96.8429,2.0,29.9549,11111222 
TABS,ioos:station:wmo:42048:1,2017-07-03T00:00:00Z,27.9396,-96.8429,2.0,29.9359,11111222 
TABS,ioos:station:wmo:42048:1,2017-07-03T00:30:00Z,27.9396,-96.8429,2.0,29.9169,11111222 
TABS,ioos:station:wmo:42048:1,2017-07-03T01:00:00Z,27.9396,-96.8429,2.0,29.9609,11111222 
TABS,ioos:station:wmo:42048:1,2017-07-03T01:30:00Z,27.9396,-96.8429,2.0,29.9625,11111222 
TABS,ioos:station:wmo:42048:1,2017-07-03T02:00:00Z,27.9396,-96.8429,2.0,29.99,11111222 
TABS,ioos:station:wmo:42048:1,2017-07-03T02:30:00Z,27.9396,-96.8429,2.0,29.99,11111222 
TABS,ioos:station:wmo:42048:1,2017-07-03T03:00:00Z,27.9396,-96.8429,2.0,29.9606,11111222 
TABS,ioos:station:wmo:42048:1,2017-07-03T03:30:00Z,27.9396,-96.8429,2.0,30.0935,11111222 
TABS,ioos:station:wmo:42048:1,2017-07-03T04:00:00Z,27.9396,-96.8429,2.0,30.1367,11111222 
TABS,ioos:station:wmo:42048:1,2017-07-03T04:30:00Z,27.9396,-96.8429,2.0,30.1096,11111222 
TABS,ioos:station:wmo:42048:1,2017-07-03T05:00:00Z,27.9396,-96.8429,2.0,30.15,11111222 
TABS,ioos:station:wmo:42048:1,2017-07-03T05:30:00Z,27.9396,-96.8429,2.0,30.3831,11111222 
TABS,ioos:station:wmo:42048:1,2017-07-03T06:00:00Z,27.9396,-96.8429,2.0,30.4631,11111222 
TABS,ioos:station:wmo:42048:1,2017-07-03T06:30:00Z,27.9396,-96.8429,2.0,30.7978,11111222 
TABS,ioos:station:wmo:42048:1,2017-07-03T07:00:00Z,27.9396,-96.8429,2.0,31.0425,11111222 
TABS,ioos:station:wmo:42048:1,2017-07-03T07:30:00Z,27.9396,-96.8429,2.0,31.285,11111222 
TABS,ioos:station:wmo:42048:1,2017-07-03T08:00:00Z,27.9396,-96.8429,2.0,31.1687,11111222 
TABS,ioos:station:wmo:42048:1,2017-07-03T08:30:00Z,27.9396,-96.8429,2.0,30.9848,11111222 
TABS,ioos:station:wmo:42048:1,2017-07-03T09:00:00Z,27.9396,-96.8429,2.0,31.0439,11111222 
TABS,ioos:station:wmo:42048:1,2017-07-03T09:30:00Z,27.9396,-96.8429,2.0,31.0071,11111222 
TABS,ioos:station:wmo:42048:1,2017-07-03T10:00:00Z,27.9396,-96.8429,2.0,31.2804,11111222 
TABS,ioos:station:wmo:42048:1,2017-07-03T10:30:00Z,27.9396,-96.8429,2.0,31.4172,11111222 
TABS,ioos:station:wmo:42048:1,2017-07-03T11:00:00Z,27.9396,-96.8429,2.0,31.3379,11111222 
TABS,ioos:station:wmo:42048:1,2017-07-03T11:30:00Z,27.9396,-96.8429,2.0,31.2384,11111222 
TABS,ioos:station:wmo:42048:1,2017-07-03T12:00:00Z,27.9396,-96.8429,2.0,31.1208,11111222 
TABS,ioos:station:wmo:42048:1,2017-07-03T12:30:00Z,27.9396,-96.8429,2.0,31.0592,11111222 
TABS,ioos:station:wmo:42048:1,2017-07-03T13:00:00Z,27.9396,-96.8429,2.0,31.0371,11111222 
TABS,ioos:station:wmo:42048:1,2017-07-03T13:30:00Z,27.9396,-96.8429,2.0,31.1446,11111222 
TABS,ioos:station:wmo:42048:1,2017-07-03T14:00:00Z,27.9396,-96.8429,2.0,31.1633,11111222 
TABS,ioos:station:wmo:42048:1,2017-07-03T14:30:00Z,27.9396,-96.8429,2.0,31.2699,11111222 
TABS,ioos:station:wmo:42048:1,2017-07-03T15:00:00Z,27.9396,-96.8429,2.0,31.4854,11111222 
TABS,ioos:station:wmo:42048:1,2017-07-03T15:30:00Z,27.9396,-96.8429,2.0,31.4937,11111222 
TABS,ioos:station:wmo:42048:1,2017-07-03T16:00:00Z,27.9396,-96.8429,2.0,31.4727,11111222 
TABS,ioos:station:wmo:42048:1,2017-07-03T16:30:00Z,27.9396,-96.8429,2.0,31.4575,11111222 
TABS,ioos:station:wmo:42048:1,2017-07-03T17:00:00Z,27.9396,-96.8429,2.0,31.4484,11111222 
TABS,ioos:station:wmo:42048:1,2017-07-03T17:30:00Z,27.9396,-96.8429,2.0,31.446,11111222 
TABS,ioos:station:wmo:42048:1,2017-07-03T18:00:00Z,27.9396,-96.8429,2.0,31.3719,11111222 
TABS,ioos:station:wmo:42048:1,2017-07-03T18:30:00Z,27.9396,-96.8429,2.0,31.375,11111222 
TABS,ioos:station:wmo:42048:1,2017-07-03T19:00:00Z,27.9396,-96.8429,2.0,31.3857,11111222 
TABS,ioos:station:wmo:42048:1,2017-07-03T19:30:00Z,27.9396,-96.8429,2.0,31.3155,11111222 
TABS,ioos:station:wmo:42048:1,2017-07-03T20:00:00Z,27.9396,-96.8429,2.0,31.3207,11111222 
TABS,ioos:station:wmo:42048:1,2017-07-03T20:30:00Z,27.9396,-96.8429,2.0,31.348,11111222 
TABS,ioos:station:wmo:42048:1,2017-07-03T21:00:00Z,27.9396,-96.8429,2.0,31.3627,11111222 
TABS,ioos:station:wmo:42048:1,2017-07-03T21:30:00Z,27.9396,-96.8429,2.0,31.3776,11111222 
TABS,ioos:station:wmo:42048:1,2017-07-03T22:00:00Z,27.9396,-96.8429,2.0,31.4621,11111222 
TABS,ioos:station:wmo:42048:1,2017-07-03T22:30:00Z,27.9396,-96.8429,2.0,31.4227,11111222 
TABS,ioos:station:wmo:42048:1,2017-07-03T23:00:00Z,27.9396,-96.8429,2.0,31.4507,11111222 
TABS,ioos:station:wmo:42048:1,2017-07-03T23:30:00Z,27.9396,-96.8429,2.0,31.5245,11111222 
TABS,ioos:station:wmo:42048:1,2017-07-04T00:00:00Z,27.9396,-96.8429,2.0,31.495,11111222 
TABS,ioos:station:wmo:42048:1,2017-07-04T00:30:00Z,27.9396,-96.8429,2.0,31.5743,11111222 
TABS,ioos:station:wmo:42048:1,2017-07-04T01:00:00Z,27.9396,-96.8429,2.0,31.5851,11111222 
TABS,ioos:station:wmo:42048:1,2017-07-04T01:30:00Z,27.9396,-96.8429,2.0,31.5663,11111222 
TABS,ioos:station:wmo:42048:1,2017-07-04T02:00:00Z,27.9396,-96.8429,2.0,31.5628,11111222 
TABS,ioos:station:wmo:42048:1,2017-07-04T02:30:00Z,27.9396,-96.8429,2.0,31.5656,11111222 
TABS,ioos:station:wmo:42048:1,2017-07-04T03:00:00Z,27.9396,-96.8429,2.0,31.5744,11111222 
TABS,ioos:station:wmo:42048:1,2017-07-04T03:30:00Z,27.9396,-96.8429,2.0,31.6217,11111222 
TABS,ioos:station:wmo:42048:1,2017-07-04T04:00:00Z,27.9396,-96.8429,2.0,31.6118,11111222 
TABS,ioos:station:wmo:42048:1,2017-07-04T04:30:00Z,27.9396,-96.8429,2.0,31.645,11111222 
TABS,ioos:station:wmo:42048:1,2017-07-04T05:00:00Z,27.9396,-96.8429,2.0,31.6892,11111222 
TABS,ioos:station:wmo:42048:1,2017-07-04T05:30:00Z,27.9396,-96.8429,2.0,31.6898,11111222 
TABS,ioos:station:wmo:42048:1,2017-07-04T06:00:00Z,27.9396,-96.8429,2.0,31.7026,11111222 
TABS,ioos:station:wmo:42048:1,2017-07-04T06:30:00Z,27.9396,-96.8429,2.0,31.7098,11111222 
TABS,ioos:station:wmo:42048:1,2017-07-04T07:00:00Z,27.9396,-96.8429,2.0,31.7153,11111222 
TABS,ioos:station:wmo:42048:1,2017-07-04T07:30:00Z,27.9396,-96.8429,2.0,31.7065,11111222 
TABS,ioos:station:wmo:42048:1,2017-07-04T08:00:00Z,27.9396,-96.8429,2.0,31.7155,11111222 
TABS,ioos:station:wmo:42048:1,2017-07-04T08:30:00Z,27.9396,-96.8429,2.0,31.7934,11111222 
TABS,ioos:station:wmo:42048:1,2017-07-04T09:00:00Z,27.9396,-96.8429,2.0,31.8567,11111222 
TABS,ioos:station:wmo:42048:1,2017-07-04T09:30:00Z,27.9396,-96.8429,2.0,31.942,11111222 
TABS,ioos:station:wmo:42048:1,2017-07-04T10:00:00Z,27.9396,-96.8429,2.0,31.878,11111222 
TABS,ioos:station:wmo:42048:1,2017-07-04T10:30:00Z,27.9396,-96.8429,2.0,32.1528,11111222 
TABS,ioos:station:wmo:42048:1,2017-07-04T11:00:00Z,27.9396,-96.8429,2.0,32.067,11111222 
TABS,ioos:station:wmo:42048:1,2017-07-04T11:30:00Z,27.9396,-96.8429,2.0,31.9583,11111222 
TABS,ioos:station:wmo:42048:1,2017-07-04T12:00:00Z,27.9396,-96.8429,2.0,32.0269,11111222 
TABS,ioos:station:wmo:42048:1,2017-07-04T12:30:00Z,27.9396,-96.8429,2.0,32.0819,11111222 
TABS,ioos:station:wmo:42048:1,2017-07-04T13:00:00Z,27.9396,-96.8429,2.0,32.1838,11111222 
TABS,ioos:station:wmo:42048:1,2017-07-04T13:30:00Z,27.9396,-96.8429,2.0,32.3392,11111222 
TABS,ioos:station:wmo:42048:1,2017-07-04T14:00:00Z,27.9396,-96.8429,2.0,32.4112,11111222 
TABS,ioos:station:wmo:42048:1,2017-07-04T14:30:00Z,27.9396,-96.8429,2.0,32.4622,11111222 
TABS,ioos:station:wmo:42048:1,2017-07-04T15:00:00Z,27.9396,-96.8429,2.0,32.4912,11111222 
TABS,ioos:station:wmo:42048:1,2017-07-04T15:30:00Z,27.9396,-96.8429,2.0,32.4589,11111222 
TABS,ioos:station:wmo:42048:1,2017-07-04T16:00:00Z,27.9396,-96.8429,2.0,32.5187,11111222 
TABS,ioos:station:wmo:42048:1,2017-07-04T16:30:00Z,27.9396,-96.8429,2.0,32.6057,11111222 
TABS,ioos:station:wmo:42048:1,2017-07-04T17:00:00Z,27.9396,-96.8429,2.0,33.119,11111222 
TABS,ioos:station:wmo:42048:1,2017-07-04T17:30:00Z,27.9396,-96.8429,2.0,33.1187,11111222 
TABS,ioos:station:wmo:42048:1,2017-07-04T18:00:00Z,27.9396,-96.8429,2.0,33.1203,11111222 
TABS,ioos:station:wmo:42048:1,2017-07-04T18:30:00Z,27.9396,-96.8429,2.0,33.1431,11111222 
TABS,ioos:station:wmo:42048:1,2017-07-04T19:00:00Z,27.9396,-96.8429,2.0,33.1887,11111222 
TABS,ioos:station:wmo:42048:1,2017-07-04T19:30:00Z,27.9396,-96.8429,2.0,33.2313,11111222 
TABS,ioos:station:wmo:42048:1,2017-07-04T20:00:00Z,27.9396,-96.8429,2.0,33.3313,11111222 
TABS,ioos:station:wmo:42048:1,2017-07-04T20:30:00Z,27.9396,-96.8429,2.0,33.4031,11111222 
TABS,ioos:station:wmo:42048:1,2017-07-04T21:00:00Z,27.9396,-96.8429,2.0,33.613,11111222 
TABS,ioos:station:wmo:42048:1,2017-07-04T21:30:00Z,27.9396,-96.8429,2.0,33.6338,11111222 
TABS,ioos:station:wmo:42048:1,2017-07-04T22:00:00Z,27.9396,-96.8429,2.0,33.5502,11111222 
TABS,ioos:station:wmo:42048:1,2017-07-04T22:30:00Z,27.9396,-96.8429,2.0,33.5437,11111222 
TABS,ioos:station:wmo:42048:1,2017-07-04T23:00:00Z,27.9396,-96.8429,2.0,33.5271,11111222 
TABS,ioos:station:wmo:42048:1,2017-07-04T23:30:00Z,27.9396,-96.8429,2.0,33.51,11111222 
TABS,ioos:station:wmo:42048:1,2017-07-05T00:00:00Z,27.9396,-96.8429,2.0,33.5027,11111222 
TABS,ioos:station:wmo:42048:1,2017-07-05T00:30:00Z,27.9396,-96.8429,2.0,33.4865,11111222 
TABS,ioos:station:wmo:42048:1,2017-07-05T01:00:00Z,27.9396,-96.8429,2.0,33.5615,11111222 
TABS,ioos:station:wmo:42048:1,2017-07-05T01:30:00Z,27.9396,-96.8429,2.0,33.6304,11111222 
TABS,ioos:station:wmo:42048:1,2017-07-05T02:00:00Z,27.9396,-96.8429,2.0,33.6449,11111222 
TABS,ioos:station:wmo:42048:1,2017-07-05T02:30:00Z,27.9396,-96.8429,2.0,33.647,11111222 
TABS,ioos:station:wmo:42048:1,2017-07-05T03:00:00Z,27.9396,-96.8429,2.0,33.6631,11111222 
TABS,ioos:station:wmo:42048:1,2017-07-05T03:30:00Z,27.9396,-96.8429,2.0,33.7009,11111222 
TABS,ioos:station:wmo:42048:1,2017-07-05T04:00:00Z,27.9396,-96.8429,2.0,33.7157,11111222 
TABS,ioos:station:wmo:42048:1,2017-07-05T04:30:00Z,27.9396,-96.8429,2.0,33.6998,11111222 
TABS,ioos:station:wmo:42048:1,2017-07-05T05:00:00Z,27.9396,-96.8429,2.0,33.7668,11111222 
TABS,ioos:station:wmo:42048:1,2017-07-05T05:30:00Z,27.9396,-96.8429,2.0,33.8735,11111222 
TABS,ioos:station:wmo:42048:1,2017-07-05T06:00:00Z,27.9396,-96.8429,2.0,33.88,11111222 
TABS,ioos:station:wmo:42048:1,2017-07-05T06:30:00Z,27.9396,-96.8429,2.0,33.8984,11111222 
TABS,ioos:station:wmo:42048:1,2017-07-05T07:00:00Z,27.9396,-96.8429,2.0,33.907,11111222 
TABS,ioos:station:wmo:42048:1,2017-07-05T07:30:00Z,27.9396,-96.8429,2.0,33.8834,11111222 
TABS,ioos:station:wmo:42048:1,2017-07-05T08:00:00Z,27.9396,-96.8429,2.0,33.8712,11111222 
TABS,ioos:station:wmo:42048:1,2017-07-05T08:30:00Z,27.9396,-96.8429,2.0,33.8872,11111222 
TABS,ioos:station:wmo:42048:1,2017-07-05T09:00:00Z,27.9396,-96.8429,2.0,33.9223,11111222 
TABS,ioos:station:wmo:42048:1,2017-07-05T09:30:00Z,27.9396,-96.8429,2.0,33.8909,11111222 
TABS,ioos:station:wmo:42048:1,2017-07-05T10:00:00Z,27.9396,-96.8429,2.0,33.9115,11111222 
TABS,ioos:station:wmo:42048:1,2017-07-05T10:30:00Z,27.9396,-96.8429,2.0,33.948,11111222 
TABS,ioos:station:wmo:42048:1,2017-07-05T11:00:00Z,27.9396,-96.8429,2.0,33.9621,11111222 
TABS,ioos:station:wmo:42048:1,2017-07-05T11:30:00Z,27.9396,-96.8429,2.0,33.9647,11111222 
TABS,ioos:station:wmo:42048:1,2017-07-05T12:00:00Z,27.9396,-96.8429,2.0,33.9735,11111222 
TABS,ioos:station:wmo:42048:1,2017-07-05T12:30:00Z,27.9396,-96.8429,2.0,34.1058,11111222 
TABS,ioos:station:wmo:42048:1,2017-07-05T13:00:00Z,27.9396,-96.8429,2.0,34.0987,11111222 
TABS,ioos:station:wmo:42048:1,2017-07-05T13:30:00Z,27.9396,-96.8429,2.0,34.0784,11111222 
TABS,ioos:station:wmo:42048:1,2017-07-05T14:00:00Z,27.9396,-96.8429,2.0,34.0542,11111222 
TABS,ioos:station:wmo:42048:1,2017-07-05T14:30:00Z,27.9396,-96.8429,2.0,34.0341,11111222 
TABS,ioos:station:wmo:42048:1,2017-07-05T15:00:00Z,27.9396,-96.8429,2.0,34.0418,11111222 
TABS,ioos:station:wmo:42048:1,2017-07-05T15:30:00Z,27.9396,-96.8429,2.0,34.0507,11111222 
TABS,ioos:station:wmo:42048:1,2017-07-05T16:00:00Z,27.9396,-96.8429,2.0,34.0575,11111222 
TABS,ioos:station:wmo:42048:1,2017-07-05T16:30:00Z,27.9396,-96.8429,2.0,34.0421,11111222 
TABS,ioos:station:wmo:42048:1,2017-07-05T17:00:00Z,27.9396,-96.8429,2.0,34.0293,11111222 
TABS,ioos:station:wmo:42048:1,2017-07-05T17:30:00Z,27.9396,-96.8429,2.0,33.9996,11111222 
TABS,ioos:station:wmo:42048:1,2017-07-05T18:00:00Z,27.9396,-96.8429,2.0,34.0181,11111222 
TABS,ioos:station:wmo:42048:1,2017-07-05T18:30:00Z,27.9396,-96.8429,2.0,34.0009,11111222 
TABS,ioos:station:wmo:42048:1,2017-07-05T19:00:00Z,27.9396,-96.8429,2.0,33.9854,11111222 
TABS,ioos:station:wmo:42048:1,2017-07-05T19:30:00Z,27.9396,-96.8429,2.0,33.9746,11111222 
TABS,ioos:station:wmo:42048:1,2017-07-05T20:00:00Z,27.9396,-96.8429,2.0,33.979,11111222 
TABS,ioos:station:wmo:42048:1,2017-07-05T20:30:00Z,27.9396,-96.8429,2.0,33.9953,11111222 
TABS,ioos:station:wmo:42048:1,2017-07-05T21:00:00Z,27.9396,-96.8429,2.0,33.9958,11111222 
TABS,ioos:station:wmo:42048:1,2017-07-05T21:30:00Z,27.9396,-96.8429,2.0,34.0033,11111222 
TABS,ioos:station:wmo:42048:1,2017-07-05T22:00:00Z,27.9396,-96.8429,2.0,34.0094,11111222 
TABS,ioos:station:wmo:42048:1,2017-07-05T22:30:00Z,27.9396,-96.8429,2.0,34.0104,11111222 
TABS,ioos:station:wmo:42048:1,2017-07-05T23:00:00Z,27.9396,-96.8429,2.0,33.9971,11111222 
TABS,ioos:station:wmo:42048:1,2017-07-05T23:30:00Z,27.9396,-96.8429,2.0,33.9911,11111222 
TABS,ioos:station:wmo:42048:1,2017-07-06T00:00:00Z,27.9396,-96.8429,2.0,33.9935,11111222 
TABS,ioos:station:wmo:42048:1,2017-07-06T00:30:00Z,27.9396,-96.8429,2.0,33.9874,11111222 
TABS,ioos:station:wmo:42048:1,2017-07-06T01:00:00Z,27.9396,-96.8429,2.0,33.9882,11111222 
TABS,ioos:station:wmo:42048:1,2017-07-06T01:30:00Z,27.9396,-96.8429,2.0,33.9838,11111222 
TABS,ioos:station:wmo:42048:1,2017-07-06T02:00:00Z,27.9396,-96.8429,2.0,33.9822,11111222 
TABS,ioos:station:wmo:42048:1,2017-07-06T02:30:00Z,27.9396,-96.8429,2.0,33.985,11111222 
TABS,ioos:station:wmo:42048:1,2017-07-06T03:00:00Z,27.9396,-96.8429,2.0,33.9845,11111222 
TABS,ioos:station:wmo:42048:1,2017-07-06T03:30:00Z,27.9396,-96.8429,2.0,33.9832,11111222 
TABS,ioos:station:wmo:42048:1,2017-07-06T04:00:00Z,27.9396,-96.8429,2.0,33.9848,11111222 
TABS,ioos:station:wmo:42048:1,2017-07-06T04:30:00Z,27.9396,-96.8429,2.0,33.9852,11111222 
TABS,ioos:station:wmo:42048:1,2017-07-06T05:00:00Z,27.9396,-96.8429,2.0,33.9895,11111222 
TABS,ioos:station:wmo:42048:1,2017-07-06T05:30:00Z,27.9396,-96.8429,2.0,33.993,11111222 
TABS,ioos:station:wmo:42048:1,2017-07-06T06:00:00Z,27.9396,-96.8429,2.0,34.0083,11111222 
TABS,ioos:station:wmo:42048:1,2017-07-06T06:30:00Z,27.9396,-96.8429,2.0,34.0128,11111222 
TABS,ioos:station:wmo:42048:1,2017-07-06T07:00:00Z,27.9396,-96.8429,2.0,34.0184,11111222 
TABS,ioos:station:wmo:42048:1,2017-07-06T07:30:00Z,27.9396,-96.8429,2.0,34.0233,11111222 
TABS,ioos:station:wmo:42048:1,2017-07-06T08:00:00Z,27.9396,-96.8429,2.0,34.0334,11111222 
TABS,ioos:station:wmo:42048:1,2017-07-06T08:30:00Z,27.9396,-96.8429,2.0,34.0289,11111222 
TABS,ioos:station:wmo:42048:1,2017-07-06T09:00:00Z,27.9396,-96.8429,2.0,34.0607,11111222 
TABS,ioos:station:wmo:42048:1,2017-07-06T09:30:00Z,27.9396,-96.8429,2.0,34.0359,11111222 
TABS,ioos:station:wmo:42048:1,2017-07-06T10:00:00Z,27.9396,-96.8429,2.0,34.0547,11111222 
TABS,ioos:station:wmo:42048:1,2017-07-06T10:30:00Z,27.9396,-96.8429,2.0,34.0296,11111222 
TABS,ioos:station:wmo:42048:1,2017-07-06T11:00:00Z,27.9396,-96.8429,2.0,34.0334,11111222 
TABS,ioos:station:wmo:42048:1,2017-07-06T11:30:00Z,27.9396,-96.8429,2.0,34.032,11111222 
TABS,ioos:station:wmo:42048:1,2017-07-06T12:00:00Z,27.9396,-96.8429,2.0,34.0342,11111222 
TABS,ioos:station:wmo:42048:1,2017-07-06T12:30:00Z,27.9396,-96.8429,2.0,34.0305,11111222 